User: anonymous   Login
Location: Brede
(50.9167°N, 0.6000°E)
Time: 16:04:19
(UTC+00:00)
Language:

Cosmos 2034 Rocket - Orbit

View from above orbital plane
View from above orbital plane
View from above satellite
View from above satellite

Ground track
Ground track

The orbit data is extracted from the following two-line orbital elements,

1 20150U 89059B   20295.01766530 -.00000061 +00000-0 -78977-4 0  9996
2 20150 082.9371 267.6649 0030325 109.6724 312.3898 13.75640209568169
Epoch (UTC): 21 October 2020 00:25:26
Eccentricity: 0.0030325
inclination: 82.9371°
perigee height: 957 km
apogee height: 1002 km
right ascension of ascending node: 267.6649°
argument of perigee: 109.6724°
revolutions per day: 13.75640209
mean anomaly at epoch: 312.3898°
orbit number at epoch: 56816

The dashed part of the orbit path shows where the satellite is in the earth's shadow,  

DLR